Weather History for Silver Bay, MN

Change the Weather History Date:

Wednesday, September 11, 2013

  Actual Average Record
Temperature  
Mean Temperature 58 °F -  
Max Temperature 71 °F 66 °F 89 °F (2011)
Min Temperature 46 °F 43 °F 32 °F (1997)
Degree Days  
Heating Degree Days 6    
Growing Degree Days 8 (Base 50)    
Moisture  
Dew Point 48 °F    
Average Humidity 69    
Maximum Humidity 94    
Minimum Humidity 29    
Precipitation  
Precipitation 0.13 in - - ()
Sea Level Pressure  
Sea Level Pressure 29.94 in    
Wind  
Wind Speed 1 mph (NW)    
Max Wind Speed 9 mph    
Max Gust Speed 24 mph    
Visibility 9 miles    
Events Rain    
Averages and records for this station are not official NWS values.
T = Trace of Precipitation, MM = Missing Value Source: NWS Daily Summary

Daily Weather History Graph

Daily Weather History Graph

Search for Another Location

Airport:

Trip Planner

Search our weather history database for the weather conditions in past years. The results will help you decide how hot, cold, wet, or windy it might be!

Date:

Astronomy

Sep. 11, 2013 Rise Set
Actual Time 6:38 AM CDT 7:25 PM CDT
Civil Twilight 6:07 AM CDT 7:56 PM CDT
Nautical Twilight 5:30 AM CDT 8:32 PM CDT
Astronomical Twilight 4:51 AM CDT 9:11 PM CDT
Moon 1:32 PM CDT (9/11) 10:55 PM CDT (9/11)
Length of Visible Light 13h 48m
Length of Day
12h 46m
Waxing Crescent, 39% of the Moon is Illuminated
Sep 11
Waxing Crescent
Sep 12
First Quarter
Sep 19
Full
Sep 26
Last Quarter
Oct 4
New

Hourly Weather History & Observations

Time (CDT) Temp. Dew Point Humidity Pressure Visibility Wind Dir Wind Speed Gust Speed Precip Events Conditions
2:11 AM 55.4 °F 51.8 °F 88% 29.92 in 10.0 mi Calm Calm - N/A   Clear
2:13 AM 55.4 °F 51.8 °F 88% 29.92 in 10.0 mi Calm Calm - N/A   Clear
2:33 AM 51.8 °F 48.2 °F 88% 29.92 in 7.0 mi Calm Calm - N/A   Clear
2:53 AM 51.8 °F 48.2 °F 88% 29.92 in 10.0 mi Calm Calm - N/A   Clear
3:13 AM 51.8 °F 48.2 °F 88% 29.93 in 7.0 mi Calm Calm - N/A   Clear
3:33 AM 50.0 °F 46.4 °F 87% 29.92 in 1.2 mi Calm Calm - N/A   Mist
3:53 AM 50.0 °F 46.4 °F 87% 29.92 in 7.0 mi Calm Calm - N/A   Clear
4:13 AM 48.2 °F 46.4 °F 93% 29.92 in 7.0 mi Calm Calm - N/A   Clear
4:33 AM 50.0 °F 46.4 °F 87% 29.93 in 7.0 mi Calm Calm - N/A   Clear
4:53 AM 48.2 °F 44.6 °F 87% 29.93 in 5.0 mi Calm Calm - N/A   Clear
5:13 AM 46.4 °F 44.6 °F 93% 29.92 in 10.0 mi Calm Calm - N/A   Clear
5:33 AM 46.4 °F 44.6 °F 93% 29.91 in 7.0 mi Calm Calm - N/A   Scattered Clouds
5:53 AM 48.2 °F 46.4 °F 93% 29.91 in 10.0 mi Calm Calm - N/A   Scattered Clouds
6:13 AM 48.2 °F 46.4 °F 93% 29.92 in 10.0 mi Calm Calm - N/A   Scattered Clouds
6:33 AM 50.0 °F 46.4 °F 87% 29.92 in 10.0 mi Calm Calm - N/A   Scattered Clouds
6:53 AM 51.8 °F 46.4 °F 82% 29.92 in 10.0 mi Calm Calm - N/A   Scattered Clouds
7:13 AM 51.8 °F 48.2 °F 88% 29.91 in 7.0 mi Calm Calm - N/A   Clear
7:33 AM 51.8 °F 46.4 °F 82% 29.92 in 10.0 mi Calm Calm - N/A   Clear
7:53 AM 53.6 °F 51.8 °F 94% 29.91 in 10.0 mi Calm Calm - N/A   Clear
8:13 AM 55.4 °F 51.8 °F 88% 29.91 in 10.0 mi Calm Calm - N/A   Clear
8:33 AM 60.8 °F 55.4 °F 82% 29.90 in 10.0 mi Calm Calm - N/A   Scattered Clouds
8:53 AM 62.6 °F 55.4 °F 77% 29.90 in 10.0 mi Calm Calm - N/A   Clear
9:13 AM 66.2 °F 57.2 °F 73% 29.90 in 10.0 mi Calm Calm - N/A   Clear
9:33 AM 66.2 °F 55.4 °F 68% 29.90 in 10.0 mi Calm Calm - N/A   Clear
9:53 AM 66.2 °F 55.4 °F 68% 29.89 in 10.0 mi West 3.5 mph - N/A   Clear
10:13 AM 66.2 °F 55.4 °F 68% 29.89 in 10.0 mi Calm Calm - N/A   Clear
10:33 AM 68.0 °F 55.4 °F 64% 29.90 in 10.0 mi NW 5.8 mph 16.1 mph N/A   Clear
10:53 AM 64.4 °F 55.4 °F 73% 29.91 in 10.0 mi Calm Calm - N/A   Clear
11:13 AM 64.4 °F 55.4 °F 73% 29.91 in 10.0 mi Calm Calm - N/A   Clear
11:33 AM 68.0 °F 55.4 °F 64% 29.91 in 10.0 mi NW 8.1 mph - N/A   Clear
11:53 AM 68.0 °F 51.8 °F 56% 29.91 in 10.0 mi NNW 9.2 mph 18.4 mph N/A   Clear
12:13 PM 69.8 °F 50.0 °F 49% 29.91 in 10.0 mi NW 8.1 mph - N/A   Clear
12:33 PM 71.6 °F 48.2 °F 43% 29.91 in 10.0 mi NW 3.5 mph - N/A   Clear
12:53 PM 71.6 °F 46.4 °F 41% 29.92 in 10.0 mi Calm Calm - N/A   Clear
1:13 PM 71.6 °F 44.6 °F 38% 29.92 in 10.0 mi NW 4.6 mph 18.4 mph N/A   Clear
1:33 PM 71.6 °F 42.8 °F 35% 29.93 in 10.0 mi NW 5.8 mph - N/A   Clear
1:53 PM 71.6 °F 41.0 °F 33% 29.94 in 10.0 mi NW 8.1 mph 21.9 mph N/A   Clear
2:13 PM 71.6 °F 41.0 °F 33% 29.94 in 10.0 mi NW 5.8 mph 21.9 mph N/A   Clear
2:33 PM 71.6 °F 39.2 °F 31% 29.95 in 10.0 mi WNW 4.6 mph 24.2 mph N/A   Clear
2:53 PM 71.6 °F 42.8 °F 35% 29.95 in 10.0 mi NW 3.5 mph - N/A   Clear
3:13 PM 71.6 °F 37.4 °F 29% 29.95 in 10.0 mi NW 3.5 mph - N/A   Clear
3:33 PM 71.6 °F 37.4 °F 29% 29.95 in 10.0 mi Calm Calm - N/A   Clear
3:53 PM 71.6 °F 37.4 °F 29% 29.96 in 10.0 mi NW 4.6 mph - N/A   Clear
4:13 PM 71.6 °F 37.4 °F 29% 29.96 in 10.0 mi Calm Calm - N/A   Clear
4:33 PM 71.6 °F 39.2 °F 31% 29.96 in 10.0 mi Calm Calm - N/A   Clear
4:53 PM 71.6 °F 39.2 °F 31% 29.97 in 10.0 mi Calm Calm - N/A   Clear
5:13 PM 69.8 °F 39.2 °F 33% 29.97 in 10.0 mi Calm Calm - N/A   Clear
5:33 PM 69.8 °F 42.8 °F 38% 29.96 in 10.0 mi Calm Calm - N/A   Clear
5:53 PM 69.8 °F 42.8 °F 38% 29.96 in 10.0 mi Calm Calm - N/A   Clear
6:13 PM 66.2 °F 46.4 °F 49% 29.96 in 10.0 mi Calm Calm - N/A   Clear
6:33 PM 62.6 °F 50.0 °F 63% 29.96 in 10.0 mi Calm Calm - N/A   Clear
6:53 PM 60.8 °F 51.8 °F 72% 29.96 in 10.0 mi Calm Calm - N/A   Clear
7:13 PM 60.8 °F 51.8 °F 72% 29.95 in 10.0 mi Calm Calm - N/A   Clear
7:33 PM 60.8 °F 53.6 °F 77% 29.96 in 10.0 mi Calm Calm - N/A Rain Light Rain
7:53 PM 60.8 °F 51.8 °F 72% 29.99 in 10.0 mi Calm Calm - N/A Rain Light Rain
8:13 PM 57.2 °F 51.8 °F 82% 30.02 in 7.0 mi North 5.8 mph 17.3 mph 0.12 in Rain Rain
8:33 PM 55.4 °F 48.2 °F 77% 30.00 in 10.0 mi North 3.5 mph 21.9 mph 0.13 in Rain Light Rain
8:53 PM 55.4 °F 50.0 °F 82% 30.00 in 10.0 mi Calm Calm - N/A   Scattered Clouds
9:13 PM 53.6 °F 50.0 °F 88% 30.01 in 10.0 mi Calm Calm - N/A   Clear
9:33 PM 53.6 °F 50.0 °F 88% 30.00 in 10.0 mi Calm Calm - N/A   Clear
9:53 PM 51.8 °F 48.2 °F 88% 30.00 in 10.0 mi Calm Calm - N/A   Scattered Clouds
10:13 PM 51.8 °F 48.2 °F 88% 30.01 in 10.0 mi Calm Calm - N/A   Scattered Clouds
10:33 PM 51.8 °F 48.2 °F 88% 30.01 in 10.0 mi Calm Calm - N/A   Scattered Clouds
10:53 PM 51.8 °F 48.2 °F 88% 30.01 in 10.0 mi Calm Calm - N/A   Clear
11:13 PM 51.8 °F 48.2 °F 88% 30.01 in 10.0 mi Calm Calm - N/A   Clear
11:33 PM 51.8 °F 48.2 °F 88% 30.01 in 10.0 mi Calm Calm - N/A   Clear
11:53 PM 51.8 °F 46.4 °F 82% 30.01 in 10.0 mi Calm Calm - N/A   Clear